Volver al catálogo

STARLINK-35969

ActivoComunicacionesVLEO
NORAD 66523·PAYLOAD·🇺🇸 United States

Lanzado Nov 19, 2025 desde Cape Canaveral Space Force Station

Loading…

Próximos Pases (próximas 24 horas)

TLE

ActualizadoSource: CelesTrak SupGP

Época: Sep 14, 2026, 23:05 UTC

1 66523C 25265H   26257.96229167  .00029764  00000+0  10780-2 0  2578
2 66523  43.0002 288.9636 0001487 268.3115 353.1109 15.27563975    14

Sigue STARLINK-35969 en tiempo real con AllMySat

Download on the App Store